W5SYF Weather Reports


time (UTC)temp
C
wind
direction
speed
KPH
gust
KPH
rain 1hr
cm
rain 24hr
cm
rain mn
cm
humidity
%
barometer
mb
20260506202314 -17 0.0 0.0 0.00 0.05 0.05 1013.2
20260506201811 -17 0.0 0.0 0.00 0.05 0.05 1013.4
20260506201308 -17 0.0 0.0 0.00 0.05 0.05 1013.8
20260506200805 -17 0.0 0.0 0.00 0.05 0.05 1013.8
20260506200301 -17 0.0 0.0 0.00 0.05 0.05 1013.5
20260506195757 -17 0.0 0.0 0.00 0.05 0.05 1013.9
20260506195255 -17 0.0 0.0 0.00 0.05 0.05 1013.9
20260506194752 -17 0.0 0.0 0.00 0.05 0.05 1013.9
20260506194248 -17 0.0 0.0 0.00 0.05 0.05 1013.7
20260506193746 -17 0.0 0.0 0.00 0.05 0.05 1013.5
20260506193242 -17 0.0 0.0 0.00 0.05 0.05 1014.1
20260506192738 -17 0.0 0.0 0.00 0.05 0.05 1014.3
20260506192235 -17 0.0 0.0 0.00 0.05 0.05 1014.3
20260506191732 -17 0.0 0.0 0.00 0.05 0.05 1014.4
20260506191229 -17 0.0 0.0 0.00 0.05 0.05 1014.2
20260506190726 -17 0.0 0.0 0.00 0.05 0.05 1014.4
20260506190222 -17 0.0 0.0 0.00 0.05 0.05 1014.2
20260506185720 -17 0.0 0.0 0.00 0.05 0.05 1014.3
20260506185216 -17 0.0 0.0 0.00 0.05 0.05 1014.5
20260506184714 -17 0.0 0.0 0.00 0.05 0.05 1014.8
20260506184211 -17 0.0 0.0 0.00 0.05 0.05 1014.5
20260506183707 -17 0.0 0.0 0.00 0.05 0.05 1014.3
20260506183203 -17 0.0 0.0 0.00 0.05 0.05 1014.2
20260506182701 -17 0.0 0.0 0.00 0.05 0.05 1013.9
20260506182157 -17 0.0 0.0 0.00 0.05 0.05 1013.8
20260506181650 -17 0.0 0.0 0.00 0.05 0.05 1013.2
20260506181147 -17 0.0 0.0 0.00 0.05 0.05 1012.8
20260506180644 -17 0.0 0.0 0.00 0.05 0.05 1012.7
20260506180140 -17 0.0 0.0 0.00 0.05 0.05 1013.0
20260506175636 -17 0.0 0.0 0.00 0.05 0.05 1013.1
20260506175133 -17 0.0 0.0 0.00 0.05 0.05 1013.0
20260506174631 -17 0.0 0.0 0.00 0.05 0.05 1013.1
20260506174128 -17 0.0 0.0 0.00 0.05 0.05 1013.6
20260506173626 -17 0.0 0.0 0.00 0.05 0.05 1013.5
20260506173122 -17 0.0 0.0 0.00 0.05 0.05 1013.9
20260506172619 -17 0.0 0.0 0.00 0.05 0.05 1013.8
20260506172115 -17 0.0 0.0 0.00 0.05 0.05 1013.8
20260506171613 -17 0.0 0.0 0.00 0.05 0.05 1013.8
20260506171110 -17 0.0 0.0 0.00 0.05 0.05 1013.8
20260506170602 -17 0.0 0.0 0.00 0.05 0.05 1013.7
20260506170059 -17 0.0 0.0 0.00 0.05 0.05 1013.8
20260506165558 -17 0.0 0.0 0.00 0.05 0.05 1013.6
20260506165053 -17 0.0 0.0 0.00 0.05 0.05 1013.9
20260506164551 -17 0.0 0.0 0.00 0.05 0.05 1013.6
20260506164048 -17 0.0 0.0 0.00 0.05 0.05 1013.6
20260506163543 -17 0.0 0.0 0.00 0.05 0.05 1013.8
20260506163040 -17 0.0 0.0 0.00 0.05 0.05 1013.9
20260506162536 -17 0.0 0.0 0.00 0.05 0.05 1013.8
20260506162033 -17 0.0 0.0 0.00 0.05 0.05 1013.9
20260506161531 -17 0.0 0.0 0.00 0.05 0.05 1014.1
20260506161028 -17 0.0 0.0 0.00 0.05 0.05 1013.7
20260506160526 -17 0.0 0.0 0.00 0.05 0.05 1013.7
20260506160023 -17 0.0 0.0 0.00 0.05 0.05 1014.2
20260506155521 -17 0.0 0.0 0.00 0.05 0.05 1013.7
20260506153658 -17 0.0 0.0 0.00 0.05 0.05 1013.1
20260506153155 -17 0.0 0.0 0.00 0.05 0.05 1013.1
20260506152652 -17 0.0 0.0 0.00 0.05 0.05 1013.0
20260506152149 -17 0.0 0.0 0.00 0.05 0.05 1014.1
20260506151648 -17 0.0 0.0 0.05 0.05 0.05 1014.9
20260506151144 -17 0.0 0.0 0.23 0.05 0.05 1014.7
20260506150641 -17 0.0 0.0 0.23 0.05 0.05 1014.0
20260506150138 -17 0.0 0.0 0.13 0.03 0.03 1015.4
20260506145635 -17 0.0 0.0 0.05 0.00 0.00 1015.7
20260506145132 -17 0.0 0.0 0.00 0.00 0.00 1015.4
20260506144630 -17 0.0 0.0 0.00 0.00 0.00 1015.1
20260506144126 -17 0.0 0.0 0.00 0.00 0.00 1015.1
20260506143624 -17 0.0 0.0 0.00 0.00 0.00 1015.1
20260506143121 -17 0.0 0.0 0.00 0.00 0.00 1014.6
20260506142620 -17 0.0 0.0 0.00 0.00 0.00 1013.6
20260506142118 -17 0.0 0.0 0.00 0.00 0.00 1013.3
20260506141615 -17 0.0 0.0 0.00 0.00 0.00 1013.6
20260506141113 -17 0.0 0.0 0.00 0.00 0.00 1013.9
20260506140610 -17 0.0 0.0 0.00 0.00 0.00 1014.2
20260506140107 -17 0.0 0.0 0.00 0.00 0.00 1013.9
20260506135604 -17 0.0 0.0 0.00 0.00 0.00 1013.8
20260506135100 -17 0.0 0.0 0.00 0.00 0.00 1014.0
20260506134557 -17 0.0 0.0 0.00 0.00 0.00 1013.7
20260506134053 -17 0.0 0.0 0.00 0.00 0.00 1013.3
20260506133550 -17 0.0 0.0 0.00 0.00 0.00 1013.3
20260506133047 -17 0.0 0.0 0.00 0.00 0.00 1013.1
20260506132544 -17 0.0 0.0 0.00 0.00 0.00 1013.1
20260506132042 -17 0.0 0.0 0.00 0.00 0.00 1013.1
20260506131538 -17 0.0 0.0 0.00 0.00 0.00 1013.2
20260506131035 -17 0.0 0.0 0.00 0.00 0.00 1013.2
20260506130532 -17 0.0 0.0 0.00 0.00 0.00 1012.7
20260506130029 -17 0.0 0.0 0.00 0.00 0.00 1012.6
20260506125527 -17 0.0 0.0 0.00 0.00 0.00 1012.5
20260506125025 -17 0.0 0.0 0.00 0.00 0.00 1012.6
20260506124523 -17 0.0 0.0 0.00 0.00 0.00 1012.7
20260506124020 -17 0.0 0.0 0.00 0.00 0.00 1012.6
20260506123518 -17 0.0 0.0 0.00 0.00 0.00 1012.4
20260506123016 -17 0.0 0.0 0.00 0.00 0.00 1012.3
20260506122512 -17 0.0 0.0 0.00 0.00 0.00 1012.4
20260506122011 -17 0.0 0.0 0.00 0.00 0.00 1012.3
20260506121508 -17 0.0 0.0 0.00 0.00 0.00 1011.8
20260506121004 -17 0.0 0.0 0.00 0.00 0.00 1012.1
20260506120502 -17 0.0 0.0 0.00 0.00 0.00 1012.2
20260506115959 -17 0.0 0.0 0.00 0.00 0.00 1012.2
20260506115457 -17 0.0 0.0 0.00 0.00 0.00 1012.1
20260506114955 -17 0.0 0.0 0.00 0.00 0.00 1012.2
20260506114452 -17 0.0 0.0 0.00 0.00 0.00 1011.8
20260506113950 -17 0.0 0.0 0.00 0.00 0.00 1011.7
20260506113448 -17 0.0 0.0 0.00 0.00 0.00 1011.6
20260506112944 -17 0.0 0.0 0.00 0.00 0.00 1011.6
20260506112442 -17 0.0 0.0 0.00 0.00 0.00 1011.5
20260506111939 -17 0.0 0.0 0.00 0.00 0.00 1011.3
20260506111437 -17 0.0 0.0 0.00 0.00 0.00 1011.3
20260506110934 -17 0.0 0.0 0.00 0.00 0.00 1010.7
20260506110432 -17 0.0 0.0 0.00 0.00 0.00 1011.1
20260506105928 -17 0.0 0.0 0.00 0.00 0.00 1011.0
20260506105424 -17 0.0 0.0 0.00 0.00 0.00 1010.8
20260506104922 -17 0.0 0.0 0.00 0.00 0.00 1011.0
20260506104420 -17 0.0 0.0 0.00 0.00 0.00 1010.8
20260506103917 -17 0.0 0.0 0.00 0.00 0.00 1010.7
20260506103415 -17 0.0 0.0 0.00 0.00 0.00 1010.8
20260506102911 -17 0.0 0.0 0.00 0.00 0.00 1010.4
20260506102410 -17 0.0 0.0 0.00 0.00 0.00 1010.2
20260506101907 -17 0.0 0.0 0.00 0.00 0.00 1010.3
20260506101403 -17 0.0 0.0 0.00 0.00 0.00 1010.1
20260506100900 -17 0.0 0.0 0.00 0.00 0.00 1010.1
20260506100358 -17 0.0 0.0 0.00 0.00 0.00 1010.0
20260506095856 -17 0.0 0.0 0.00 0.00 0.00 1010.1
20260506095354 -17 0.0 0.0 0.00 0.00 0.00 1009.8
20260506094850 -17 0.0 0.0 0.00 0.00 0.00 1009.6
20260506094349 -17 0.0 0.0 0.00 0.00 0.00 1009.9
20260506093847 -17 0.0 0.0 0.00 0.00 0.00 1009.9
20260506093344 -17 0.0 0.0 0.00 0.00 0.00 1009.8
20260506092841 -17 0.0 0.0 0.00 0.00 0.00 1009.5
20260506092340 -17 0.0 0.0 0.00 0.00 0.00 1009.7
20260506091836 -17 0.0 0.0 0.00 0.00 0.00 1009.6
20260506091334 -17 0.0 0.0 0.00 0.00 0.00 1009.6
20260506090831 -17 0.0 0.0 0.00 0.00 0.00 1009.6
20260506090328 -17 0.0 0.0 0.00 0.00 0.00 1009.6
20260506085825 -17 0.0 0.0 0.00 0.00 0.00 1009.5
20260506085321 -17 0.0 0.0 0.00 0.00 0.00 1009.7
20260506084818 -17 0.0 0.0 0.00 0.00 0.00 1009.4
20260506084314 -17 0.0 0.0 0.00 0.00 0.00 1009.5
20260506083811 -17 0.0 0.0 0.00 0.00 0.00 1009.2
20260506083309 -17 0.0 0.0 0.00 0.00 0.00 1009.2
20260506082806 -17 0.0 0.0 0.00 0.00 0.00 1009.2
20260506082304 -17 0.0 0.0 0.00 0.00 0.00 1009.4
20260506081759 -17 0.0 0.0 0.00 0.00 0.00 1009.3
20260506081257 -17 0.0 0.0 0.00 0.00 0.00 1009.4
20260506080754 -17 0.0 0.0 0.00 0.00 0.00 1009.3
20260506080250 -17 0.0 0.0 0.00 0.00 0.00 1009.2
20260506073234 -17 0.0 0.0 0.00 0.00 0.00 1008.7
20260506072731 -17 0.0 0.0 0.00 0.00 0.00 1008.8
20260506072229 -17 0.0 0.0 0.00 0.00 0.00 1008.9
20260506071727 -17 0.0 0.0 0.00 0.00 0.00 1008.8
20260506071224 -17 0.0 0.0 0.00 0.00 0.00 1009.1
20260506070721 -17 0.0 0.0 0.00 0.00 0.00 1008.8
20260506070218 -17 0.0 0.0 0.00 0.00 0.00 1008.9
20260506062155 -17 0.0 0.0 0.00 0.00 0.00 1008.8
20260506061651 -17 0.0 0.0 0.00 0.00 0.00 1008.6
20260506061148 -17 0.0 0.0 0.00 0.00 0.00 1008.9
20260506060647 -17 0.0 0.0 0.00 0.00 0.00 1008.9
20260506060143 -17 0.0 0.0 0.00 0.00 0.00 1009.0
20260506051115 -17 0.0 0.0 0.00 0.00 0.00 1009.1
20260506050614 -17 0.0 0.0 0.00 0.00 0.00 1009.2
20260506050111 -17 0.0 0.0 0.00 0.00 0.00 1009.1
20260506045104 -17 0.0 0.0 0.00 0.00 0.00 1008.5
20260506044602 -17 0.0 0.0 0.00 0.00 0.00 1008.7
20260506044058 -17 0.0 0.0 0.00 0.00 0.00 1008.6
20260506043555 -17 0.0 0.0 0.00 0.00 0.00 1008.7
20260506043054 -17 0.0 0.0 0.00 0.00 0.00 1008.9
20260506042553 -17 0.0 0.0 0.00 0.00 0.00 1009.1
20260506042050 -17 0.0 0.0 0.00 0.00 0.00 1009.0
20260506041549 -17 0.0 0.0 0.00 0.00 0.00 1008.9
20260506041045 -17 0.0 0.0 0.00 0.00 0.00 1008.8
20260506040543 -17 0.0 0.0 0.00 0.00 0.00 1008.7
20260506040038 -17 0.0 0.0 0.00 0.00 0.00 1008.6
20260506035536 -17 0.0 0.0 0.00 0.00 0.00 1008.5
20260506035032 -17 0.0 0.0 0.00 0.00 0.00 1008.1
20260506034530 -17 0.0 0.0 0.00 0.00 0.00 1008.0
20260506034026 -17 0.0 0.0 0.00 0.00 0.00 1008.0
20260506033524 -17 0.0 0.0 0.00 0.00 0.00 1008.4
20260506033021 -17 0.0 0.0 0.00 0.00 0.00 1008.1
20260506032518 -17 0.0 0.0 0.00 0.00 0.00 1007.9
20260506032015 -17 0.0 0.0 0.00 0.00 0.00 1007.7
20260506031513 -17 0.0 0.0 0.00 0.00 0.00 1007.6
20260506031009 -17 0.0 0.0 0.00 0.00 0.00 1007.5
20260506030508 -17 0.0 0.0 0.00 0.00 0.00 1007.5
20260506030004 -17 0.0 0.0 0.00 0.00 0.00 1007.5
20260506025501 -17 0.0 0.0 0.00 0.00 0.00 1007.3
20260506024957 -17 0.0 0.0 0.00 0.00 0.00 1007.4
20260506024454 -17 0.0 0.0 0.00 0.00 0.00 1007.6
20260506023950 -17 0.0 0.0 0.00 0.00 0.00 1007.2
20260506023447 -17 0.0 0.0 0.00 0.00 0.00 1007.2
20260506022944 -17 0.0 0.0 0.00 0.00 0.00 1007.0
20260506022442 -17 0.0 0.0 0.00 0.00 0.00 1006.8
20260506021939 -17 0.0 0.0 0.00 0.00 0.00 1006.7
20260506021436 -17 0.0 0.0 0.00 0.00 0.00 1006.5
20260506020933 -17 0.0 0.0 0.00 0.00 0.00 1006.7
20260506020431 -17 0.0 0.0 0.00 0.00 0.00 1006.3
20260506015928 -17 0.0 0.0 0.00 0.00 0.00 1006.0
20260506015426 -17 0.0 0.0 0.00 0.00 0.00 1005.9
20260506014922 -17 0.0 0.0 0.00 0.00 0.00 1005.7
20260506014419 -17 0.0 0.0 0.00 0.00 0.00 1005.5
20260506013916 -17 0.0 0.0 0.00 0.00 0.00 1005.5
20260506013414 -17 0.0 0.0 0.00 0.00 0.00 1005.5
20260506012910 -17 0.0 0.0 0.00 0.00 0.00 1005.5
20260506012407 -17 0.0 0.0 0.00 0.00 0.00 1005.4
20260506011904 -17 0.0 0.0 0.00 0.00 0.00 1005.0
20260506011401 -17 0.0 0.0 0.00 0.00 0.00 1005.0
20260506010858 -17 0.0 0.0 0.00 0.00 0.00 1005.1
20260506010356 -17 0.0 0.0 0.00 0.00 0.00 1005.1
20260506005852 -17 0.0 0.0 0.00 0.00 0.00 1005.1
20260506005350 -17 0.0 0.0 0.00 0.00 0.00 1005.0
20260506004845 -17 0.0 0.0 0.00 0.00 0.00 1004.7
20260506004343 -17 0.0 0.0 0.00 0.00 0.00 1004.6
20260506003839 -17 0.0 0.0 0.00 0.00 0.00 1004.3
20260506003335 -17 0.0 0.0 0.00 0.00 0.00 1004.4
20260506002832 -17 0.0 0.0 0.00 0.00 0.00 1004.7
20260506002328 -17 0.0 0.0 0.00 0.00 0.00 1004.5
20260506001824 -17 0.0 0.0 0.00 0.00 0.00 1004.3
20260506001321 -17 0.0 0.0 0.00 0.00 0.00 1004.2
20260506000818 -17 0.0 0.0 0.00 0.00 0.00 1004.5
20260506000316 -17 0.0 0.0 0.00 0.00 0.00 1004.2
20260505235812 -17 0.0 0.0 0.00 0.00 0.00 1004.4
20260505235310 -17 0.0 0.0 0.00 0.00 0.00 1004.1
20260505234807 -17 0.0 0.0 0.00 0.00 0.00 1003.9
20260505234305 -17 0.0 0.0 0.00 0.00 0.00 1003.9
20260505233801 -17 0.0 0.0 0.00 0.00 0.00 1003.8
20260505233259 -17 0.0 0.0 0.00 0.00 0.00 1003.8
20260505232756 -17 0.0 0.0 0.00 0.00 0.00 1003.7
20260505232254 -17 0.0 0.0 0.00 0.00 0.00 1003.7
20260505231750 -17 0.0 0.0 0.00 0.00 0.00 1003.5
20260505231249 -17 0.0 0.0 0.00 0.00 0.00 1003.4
20260505230747 -17 0.0 0.0 0.00 0.00 0.00 1003.5
20260505230243 -17 0.0 0.0 0.00 0.00 0.00 1003.4
20260505225740 -17 0.0 0.0 0.00 0.00 0.00 1003.3
20260505225237 -17 0.0 0.0 0.00 0.00 0.00 1003.1
20260505224732 -17 0.0 0.0 0.00 0.00 0.00 1003.2
20260505224230 -17 0.0 0.0 0.00 0.00 0.00 1002.8
20260505223727 -17 0.0 0.0 0.00 0.00 0.00 1002.8
20260505223223 -17 0.0 0.0 0.00 0.00 0.00 1002.8
20260505222719 -17 0.0 0.0 0.00 0.00 0.00 1002.9
20260505222215 -17 0.0 0.0 0.00 0.00 0.00 1002.6
20260505221713 -17 0.0 0.0 0.00 0.00 0.00 1002.6
20260505221209 -17 0.0 0.0 0.00 0.00 0.00 1002.5
20260505220707 -17 0.0 0.0 0.00 0.00 0.00 1002.5
20260505220204 -17 0.0 0.0 0.00 0.00 0.00 1002.5
20260505215702 -17 0.0 0.0 0.00 0.00 0.00 1002.7
20260505215200 -17 0.0 0.0 0.00 0.00 0.00 1002.7
20260505214657 -17 0.0 0.0 0.00 0.00 0.00 1003.0
20260505214154 -17 0.0 0.0 0.00 0.00 0.00 1002.7
20260505213652 -17 0.0 0.0 0.00 0.00 0.00 1002.8
20260505213148 -17 0.0 0.0 0.00 0.00 0.00 1002.9
20260505212644 -17 0.0 0.0 0.00 0.00 0.00 1002.8
20260505212142 -17 0.0 0.0 0.00 0.00 0.00 1002.8
20260505211639 -17 0.0 0.0 0.00 0.00 0.00 1003.0
20260505211136 -17 0.0 0.0 0.00 0.00 0.00 1002.9
20260505210633 -17 0.0 0.0 0.00 0.00 0.00 1003.2
20260505210129 -17 0.0 0.0 0.00 0.00 0.00 1003.1
20260505205627 -17 0.0 0.0 0.00 0.00 0.00 1003.2
20260505205125 -17 0.0 0.0 0.00 0.00 0.00 1003.4
20260505204622 -17 0.0 0.0 0.00 0.00 0.00 1003.5
20260505204119 -17 0.0 0.0 0.00 0.00 0.00 1003.2
20260505203616 -17 0.0 0.0 0.00 0.00 0.00 1003.4
20260505203113 -17 0.0 0.0 0.00 0.00 0.00 1003.2